STARLINK-31036, 58533

Orbit data source: Space-Track

STARLINK-31036, 58533 is a payload satellite owned by SpaceX/Seattle (US) in LEO that was launched on Fri, 08 Dec 2023 UTC via an FALCON 9 launch vehicle from the Air Force Western Test Range (AFWTR). Payload-class satellites include a variety of spacecraft equipped with specific instruments for various scientific and technological missions. These include communications satellites like Starlink; space stations such as the ISS; scientific satellites like the Hubble; Earth observation satellites from companies like Planet Labs, Umbra, and HawkEye 360; GPS; miniature CubeSats for education and research; and military/defense satellites.

Loading next visibility...
Identifier
58533, 2023-192C
Orbit
LEO
Country
Flag of USUS
Related business
Manufacturer
SpaceX/Seattle
Mission
Operational Commercial Communications
Bus & Motor
STARLINK V2M, Unknown motor
Mass
730 kg wet, ~700 kg dry
Launch date (UTC)
2023-12-08 (3 years ago)
Launch vehicle
FALCON 9
Launch site
Air Force Western Test Range (AFWTR)
Object type
Payload
Rocket body
Debris
Shape & HBR
Box + 2 Pan, 17.7 m
Radar Cross Section
33.884 m², Large (>1 m²)

Expand to show TLE details & history
Last TLE update: 3 days ago

TLE from 3 days ago
0 STARLINK-31036
1 58533U 23192C   26170.70108578 -.00000539  00000-0 -48122-5 0  9994
2 58533  53.1601 307.5340 0001101  77.9048 282.2078 15.34401200141625
Epoch: 2026-06-19T16:49Z
TLE epoch observation values (Epoch: 2026-06-19T16:49:33.811Z)
Latitude
-0.00001°
Longitude
147.21683°
Altitude
463.442 km
Speed
7.636 km/s
True Right ascension
20h 30m 08s
True Declination
0° 00' 00"
Sunlit
Object was in full shadow at epoch
Visualization orbit readout
Latitude
Unknown
Longitude
Unknown
Altitude
Unknown
Speed
Unknown
Apparent Right ascension
Unknown
Apparent Declination
Unknown
Sunlit
N/A
Visualization observer readout
Local Sidereal Time
21:26:52
Azimuth
Unknown
Elevation
Unknown
Doppler factor
Unknown
Orbital elements
Apogee altitude
463.71 km
Perigee altitude
462.203 km
Semi-major axis
6,841.094 km
Eccentricity
0.00011
Inclination
53.1601°
RAAN
307.534°
Arg. of periapsis
77.9048°
True anomaly
282.19547°
Mean anomaly
282.2078°
Eccentric anomaly
282.20163°
Mean motion
3.83579 °/min
Orbital period
93.85 mins
BSTAR
-0.0000048122
Loading maneuver chart data...
Computing Atmospheric mass density...
Loading historical data...
Loading historical data...
Loading historical data...
Loading historical data...
Loading historical data...
Loading historical data...
Loading historical data...

Documentation

Showing up to 5 results
|